This is the latest recevied weather packets stored in our database for station/object DL9GJ-6. If no packets are shown the sender has not sent any weather packets the latest 10 day(s).
| Time | Temp. | Humidity | Pressure | Rain* | Wind** | Luminosity | Snow |
|---|---|---|---|---|---|---|---|
| 1778073620 | 16.67° C | 74% | 1004.5 hPa | 0.25 mm | - | 78 W/m² | - |
| 1778073261 | 16.67° C | 69% | 1004.5 hPa | 0 mm | - | 54 W/m² | - |
| 1778072900 | 16.67° C | 68% | 1004.5 hPa | 0 mm | - | 76 W/m² | - |
| 1778072539 | 17.22° C | 67% | 1004.4 hPa | 0 mm | - | 137 W/m² | - |
| 1778072180 | 17.22° C | 68% | 1004.3 hPa | 0 mm | - | 193 W/m² | - |
| 1778071821 | 17.22° C | 69% | 1004.3 hPa | 0 mm | - | 244 W/m² | - |
| 1778071460 | 16.67° C | 70% | 1004.2 hPa | 0 mm | - | 375 W/m² | - |
| 1778071101 | 16.67° C | 70% | 1004.2 hPa | 0 mm | - | 335 W/m² | - |
| 1778071086 | 16.67° C | 70% | 1004.2 hPa | 0 mm | - | 335 W/m² | - |
| 1778070741 | 16.67° C | 71% | 1004.2 hPa | 0 mm | - | 325 W/m² | - |
| 1778070380 | 16.67° C | 71% | 1004.2 hPa | 0 mm | - | 246 W/m² | - |
| 1778070020 | 16.67° C | 73% | 1004.3 hPa | 0 mm | - | 187 W/m² | - |
| 1778070007 | 16.67° C | 73% | 1004.3 hPa | 0 mm | - | 187 W/m² | - |
| 1778069660 | 16.67° C | 72% | 1004.2 hPa | 0 mm | - | 126 W/m² | - |
| 1778069301 | 16.67° C | 70% | 1004.2 hPa | 0 mm | - | 145 W/m² | - |
| 1778068940 | 16.67° C | 71% | 1004.3 hPa | 0 mm | - | 129 W/m² | - |
| 1778068580 | 16.67° C | 70% | 1004.3 hPa | 0 mm | - | 186 W/m² | - |
| 1778068220 | 16.67° C | 71% | 1004.4 hPa | 0 mm | - | 256 W/m² | - |
| 1778067860 | 16.67° C | 72% | 1004.4 hPa | 0 mm | - | 326 W/m² | - |
| 1778067500 | 16.67° C | 69% | 1004.4 hPa | 0 mm | - | 314 W/m² | - |
| 1778067141 | 16.67° C | 69% | 1004.5 hPa | 0 mm | - | 329 W/m² | - |
| 1778066781 | 16.67° C | 70% | 1004.4 hPa | 0 mm | - | 311 W/m² | - |
| 1778066421 | 16.67° C | 72% | 1004.5 hPa | 0 mm | - | 397 W/m² | - |
| 1778066061 | 17.22° C | 70% | 1004.5 hPa | 0 mm | - | 378 W/m² | - |
| 1778065700 | 17.22° C | 71% | 1004.6 hPa | 0 mm | - | 708 W/m² | - |
* Rain latest hour (hover to see other rain measurements)
** Current wind speed in m/s (hover to see current wind gust speed)